Regional Weather Roundup
Issued by NWS Cleveland, OH

Home | Current Version | Previous Version | Graphics & Text | Print | Product List | Glossary On
Versions: 1 2 3 4 5 6 7 8 9 10 11 12 13 14 15 16 17 18 19 20 21 22 23 24 25 26 27 28 29 30 31 32 33 34 35 36 37 38 39 40 41 42 43 44 45 46 47 48 49 50
000
ASUS41 KCLE 210000
RWRCLE
OHIO REGIONAL WEATHER ROUNDUP
NATIONAL WEATHER SERVICE WILMINGTON, OH
800 PM EDT SUN AUG 20 2017

NOTE: "FAIR" INDICATES FEW OR NO CLOUDS BELOW 12,000 FEET WITH NO
SIGNIFICANT WEATHER AND/OR OBSTRUCTIONS TO VISIBILITY.

OHZ001>008-015>018-024>027-034-035-043-044-210100-
   NORTHWEST OHIO

CITY           SKY/WX    TMP DP  RH WIND       PRES   REMARKS
DEFIANCE       FAIR      80  69  69 CALM      30.05R
FINDLAY        FAIR      85  67  54 CALM      30.05R
TOLEDO EXPRESS FAIR      77  70  79 CALM      30.05S
TOLEDO EXEC    FAIR      80  69  69 E6        30.06R
LIMA           FAIR      79  69  71 NW7       30.07R
$$

OHZ009>014-019>023-028>033-038-089-210100-
   NORTHEAST OHIO

CITY           SKY/WX    TMP DP  RH WIND       PRES   REMARKS
CLE-HOPKINS    MOCLDY    82  62  50 N5        30.10R
CLE-LAKEFRONT  FAIR      76  67  73 NE9       30.07R
CUY CO. ARPT   PTCLDY    79  63  57 E7        30.09R
LORAIN-ELYRIA    N/A    N/A N/A N/A MISG      30.09R
ASHTABULA      FAIR      75  63  66 SE5       30.11S
AKRON-CANTON   FAIR      80  61  52 S6        30.11R
WOOSTER        NOT AVBL
MANSFIELD      MOCLDY    79  68  69 SE6       30.10R
YOUNGSTOWN     FAIR      76  58  53 SE6       30.12R
$$

OHZ042-051>053-060>062-070>072-077>081-210100-
  SOUTHWEST OHIO

CITY           SKY/WX    TMP DP  RH WIND       PRES   REMARKS
CINC-COVINGTON MOCLDY    79  72  79 S3        30.09R
CINC-LUNKEN    FAIR      80  71  74 S3        30.07R
HAMILTON       FAIR      80  70  71 CALM      30.08R
DAYTON         NOT AVBL
WRIGHT-PAT AFB DRIZZLE   84  63  48 SW8       30.08R
DAYTON GENERAL FAIR      83  64  52 W5        30.08R
WILMINGTON     MOCLDY    78  71  79 S3        30.10R
$$

OHZ036-037-039>041-045>050-054>059-063>069-073>076-082>088-210100-
  CENTRAL AND SOUTHEAST OHIO

CITY           SKY/WX    TMP DP  RH WIND       PRES   REMARKS
COLUMBUS       FAIR      84  69  60 S8        30.08R
OSU AIRPORT    FAIR      82  68  62 SW7       30.08R
BOLTON FIELD   NOT AVBL
RICKENBACK AFB NOT AVBL
NEWARK         FAIR      80  70  71 S3        30.09R
MARION         MOCLDY    81  69  67 S7        30.08R
LANCASTER      FAIR      82  71  69 S3        30.10R
ZANESVILLE     FAIR      81  68  64 SE5       30.10R
NEW PHILLY     FAIR      75  69  81 CALM      30.11R
$$




USA.gov is the U.S. government's official web portal to all federal, state and local government web resources and services.